Погода в Благовещенске

Погода в Благовещенске : погода сейчас, прогноз погоды и архив. Всё, что Вы хотите узнать о погоде в Благовещенске!

Хотите узнать прогноз погоды в Благовещенске? Тогда Вам сюда: Погода в Благовещенске

Поиск расширенной информации на нашем сайте:

Другие новости

Новости СМИ2

Главная страница сайта

Новости сайта

03.07.2017

Напоминаем, что на нашем специализированном сайте Метеоцентр.Азия вы можете получить высокодетализированные автоматические прогнозы погоды по пунктам России, СНГ и мира в авиационном формате (включающие направление и скорость ветра, видимость, явления погоды, количество и форму облачности, нижнюю и верхнюю границу облачности).


Погода в Благовещенске - сегодня

Время (UTC), дата Ветер
(°,м/с) 
Видим.   Явления Облачность Т
(°С)
Тd
(°С)
f(%) Тe
(°С)
Pmin
(гПа)
dP
(гПа)
Po
(мм)
O2
(г/м3)
Тmin Tmax R s Состояние
почвы
21 19.05.18 140 (ЮВ) 20000 м    10/0 верхняя 
[Ci fib]
+17.1 +2.2 37 +18  1011.6  0.6  744  282           
00 20.05.18 230 (ЮЗ) 5{12}  20000 м    10/0 средняя, верхняя 
[Ac As|Ci]
+24.6 +2 23 +25  1011.6  0.5  744  275  +16.9        сухая 
06 20.05.18 230 (ЮЗ) 3{13}  20000 м    9/3 1000 м средняя, верхняя 
[Sc|Ac trans|Ci fib]
+27.5 +1.1 18 +28  1010.2  -1.1  743  272           
09 20.05.18 240 (ЮЗ) 4{12}  20000 м    10/4 600 м кучево-дожд., средняя, верхняя 
[Cb cap|Ac trans|Ci]
+27.7 +1.7 19 +28  1009.8  -0.3  743  272           
12 20.05.18 330 (СЗ) 2{10}  20000 м    4/0 средняя, верхняя 
[Ac trans|Ci fib]
+18.8 +9 53 +20  1012.7  2.2  745  279    +28.8       
15 20.05.18 300 (СЗ) н/о    3/0 верхняя 
[Ci fib]
+14.2 +9.3 72 +14  1014.7  1.7  746  284           
18 20.05.18 290 (З) н/о    5/3 1000 м верхняя 
[Sc|Ci fib]
+11.4 +8.2 81 +11  1015.8  0.9  747  287           
21 20.05.18 300 (СЗ) 20000 м    3/0 верхняя 
[Ci fib]
+10.4 +7.7 83 +11  1016.4  0.6  747  289           
00 21.05.18 060 (СВ) 20000 м    3/0 верхняя 
[Ci fib]
+17.9 +9.1 56 +19  1015.4  -0.5  747  281  +9        сухая 
03 21.05.18 100 (В) 20000 м    8/0 верхняя 
[Cc]
+22.3 +8.6 41 +22  1012.7  -2.4  745  276           
06 21.05.18 170 (Ю) 20000 м    10/1 600 м верхняя 
[Cu hum|Ci]
+26.7 +8.8 32 +27  1009.5  -2.9  743  271           
09 21.05.18 220 (ЮЗ) 20000 м    8/5 600 м верхняя 
[Cu med, cong|Ci fib]
+27.8 +7.6 28 +28  1006.5  -2.8  741  270           
15 21.05.18 190 (Ю) н/о    ясно 
+19.3 +1 29 +20  1006.4  -0.8  740  278           
18 21.05.18 150 (ЮВ) н/о    ясно 
+14.3 +3.2 47 +16  1005.2  -1.5  739  282           
21 21.05.18 170 (Ю) 20000 м    4/0 верхняя 
[Ci fib]
+13.6 +3.4 50 +14  1002.6  -2.5  737  282           
00 22.05.18 190 (Ю) 5-11{12}  20000 м    10/0 верхняя 
[Ci sp]
+21.4 +1.1 26 +21  998.9  -3.2  735  274  +12.8        сухая 
12 22.05.18 270 (З) 7-13{16}  20000 м  пыльный позёмок  10/10 1000 м 
[Sc]
+6.5 +0.2 64 +4  999.4  2.7  734  289    +25.5       
15 22.05.18 тихо () {15}  н/о    10/0 средняя 
[As op]
+5.5 +0.2 69 +6  1001.3  1.9  736  290           
18 22.05.18 230 (ЮЗ) н/о    10/10 600 м кучево-дожд. 
[Cb cap]
+5.3 +0.1 69 +4  1001.3  -0.1  736  291           
21 22.05.18 230 (ЮЗ) 20000 м    10/10 600 м кучево-дожд. 
[Cb cap]
+4.9 +0.4 73 +4  1001.4  -0.1  736  291           
00 23.05.18 230 (ЮЗ) 20000 м    10/3 600 м верхняя 
[Cu Sc|Ci fib]
+8.2 +1 60 +8  999.7  -1.4  735  287  +4.8        сухая 
03 23.05.18 130 (ЮВ) 20000 м    10/8 600 м кучево-дожд., верхняя 
[Cb cap|Ci fib]
+14.1 +0.5 39 +15  997.6  -1.6  733  281           
06 23.05.18 160 (Ю) 20000 м    8/8 600 м кучево-дожд. 
[Cb cap]
+14.7 -4.2 27 +15  996.4  -1.1  733  280           
09 23.05.18 210 (ЮЗ) 20000 м    6/6 600 м кучево-дожд. 
[Cb cap]
+14.8 -5.5 24 +15  996.2  -0.2  732  280           
15 23.05.18 290 (З) н/о    ясно 
+3.8 -0 76 +3  998.1  0.1  733  291           
Время (UTC), дата Ветер
(°,м/с) 
Видим.   Явления Облачность Т
(°С)
Тd
(°С)
f(%) Тe
(°С)
Pmin
(гПа)
dP
(гПа)
Po
(мм)
O2
(г/м3)
Тmin Tmax R s Состояние
почвы

Для получения пояснительной информации подведите курсор к названию столбца.

ПОГОДА в Благовещенске - архив

Всё, что Вы хотите узнать о погоде в Благовещенске - удобно и подробно!

Выберите нужную дату (начиная с 1 января 2015* года) и нажмите кнопку "Найти".
Будут отображены архивные сводки погоды по пункту Благовещенск, начиная с указанной даты.


Отображать данные в формате CSV (для использования в таблицах Excel)


Внимание! Наш архив погоды предназначен исключительно для личного некоммерческого использования в познавательных целях. Если Вам необходимы официальные справки о состоянии погоды (для производственных, юридических, коммерческих и т.п. целей), обращайтесь в органы Росгидромета.

*Примечание: данная дата относится к архиву по метеостанциям СССР (Россия, СНГ, Балтия).
Архив по метеостанциям Зарубежной Европы и Азии (кроме Китая) хранится 10 дней, по другим регионам земного шара (Китай, Африка, Америка, Австралия, Океания) - 1 день.

Благовещенск - район местоположения метеостанции


Название, широта, долгота, высота метеостанции:
Благовещенск 50.2°ш. 127.6°д. 132 м над ур. моря [Российская Федерация]

Дополнительная информация

В oтличие oт бoльшинства пoгoдных сайтoв мы публикуем пoдрoбную метеoинфoрмацию в детальнoм прoфессиoнальнoм фoрмате.

Характеристики температуры и влажнoсти вoздуха измеряются на высoте 2 м в тени вдали oт зданий и деревьев.
Скoрoсть ветра измеряется на высoте 10 м (на урoвне рoста челoвека скoрoсть ветра ниже в 1.5-2 раза). Если метеoстанция нахoдится в гoрoде или в лесу, тo скoрoсть ветра занижена на 2-4 м/с пo сравнению с oткрытым местoм. Скoрoсть ветра над акватoриями крупных рек и oзёр, а также на вершинах хoлмoв на 2-5 м/с выше, чем в oбычных услoвиях.
Атмoсфернoе давление в разных тoчках местнoсти мoжет значительнo oтличаться oт давления на метеoстанции, в зависимoсти oт услoвий рельефа (при пoдъёме на 10 м давление пoнижается примернo на 1 мм рт.ст.).